Location: Lane
(33.5226°N, 79.8788°W)
Time: 09:59:22
(UTC+00:00)

Altair - Pass Details

Date: 09 October 2022
Orbit: 1501 x 1682 km, 47.2° (Epoch: 30 November)

Event Time Altitude Azimuth Distance (km) Brightness Sun altitude
Rises 05:49:12 0° 189° (S) 4,647 - -61.0°
Reaches altitude 10° 05:52:56 10° 176° (S) 3,688 - -60.7°
Maximum altitude 06:00:01 25° 126° (SE) 2,755 - -60.1°
Exits shadow 06:07:06 11° 76° (ENE) 3,763 9.7 -59.4°
Drops below altitude 10° 06:07:16 10° 76° (ENE) 3,803 9.8 -59.4°
Sets 06:11:08 0° 64° (ENE) 4,822 10.5 -58.9°
